sat.trackr.live / text

‹ back to catalog

APRIZESAT 3

NORAD 35686 · 2009-041F

PAYLOAD ACTIVE UNKNOWN

§ Identity

Operator
Country
US
Launch date
2009-07-29
Launch site
TYMSC
Launch vehicle
Mass (kg)
RCS (m²)
0.11

Purposes: tech_demo

External: N2YO · Heavens-Above · Gunter

§ Orbital elements

Epoch: 2026-05-25T03:50:39.264288Z

Period
96.25 min
Inclination
98.2035°
Eccentricity
0.0062710
Mean motion
14.96150176 rev/d
Perigee alt
535.2 km
Apogee alt
622.4 km
Semi-major
6,956.9 km
B*
1.6813e-4
RAAN
297.2866°
Arg perigee
142.3089°
Mean anomaly
218.2549°
Rev number
91,293

§ Raw data

APRIZESAT 31 35686U 09041F   26145.16017667  .00001901  00000+0  16813-3 0  99962 35686  98.2035 297.2866 0062710 142.3089 218.2549 14.96150176912935

JSON: /api/v1/satellites/35686 · /tle

For live sub-satellite position, see the globe view (requires WebGL).

§ Visibility from observer

Set your observer location to see the next 7 days of passes ≥ 10°. The values pass through the URL so the page stays shareable.

No JS? Fill the form by hand. The geolocation button needs JavaScript.